Date String (YYYY-MM-DD hh:mm:ss) UTC,Instrument flags,Ambient pressure (hPa),Sample flow (lpm),Bypass flow (lpm),Sample temperature (°C),Ambient temperature (°C),ASC tube jacket temperature (°C),LED temperature (°C),Box temperature (°C),Sample RH (%),Span deviation,Mass concentration (μg/m³),Mass concentration (μg/m³),Mass concentration (μg/m³)
DateTimeUTC,F1_M11,P_M11,Q1_M11,Q2_M11,T1_M11,T2_M11,T3_M11,T4_M11,T5_M11,U1_M11,ZSPAN_M11,X0_M11,X2_M11,X1_M11
2022-07-29 04:00:00,,0831.0,5.01,0.00,31.1,29.0,00.0,39.6,32.3,34.4,0000.2,0009.53,0006.92,0006.62
2022-07-29 04:01:00,,0831.0,5.01,0.00,31.1,29.1,00.0,39.6,32.3,34.4,-000.1,0009.73,0006.95,0006.63
2022-07-29 04:02:00,,0831.0,4.99,0.00,31.1,28.9,00.0,39.6,32.3,34.3,-000.8,0010.42,0006.96,0006.66
2022-07-29 04:03:00,,0831.1,5.00,0.00,31.0,28.3,00.0,39.6,32.1,34.5,-001.0,0010.55,0007.01,0006.69
2022-07-29 04:04:00,,0831.0,5.00,0.00,31.0,27.8,00.0,39.5,32.0,35.0,-001.3,0010.63,0007.06,0006.73
2022-07-29 04:05:00,,0831.0,4.99,0.00,30.9,27.7,00.0,39.5,32.0,34.8,-001.4,0010.66,0007.06,0006.74
2022-07-29 04:06:00,,0831.0,5.00,0.00,30.9,27.8,00.0,39.5,32.0,34.7,-001.3,0010.62,0007.08,0006.75
2022-07-29 04:07:00,,0831.0,4.98,0.00,30.9,27.9,00.0,39.4,32.0,34.6,-001.3,0010.59,0007.13,0006.76
2022-07-29 04:08:00,,0831.0,5.02,0.00,30.8,28.0,00.0,39.4,32.0,34.5,-000.9,0010.52,0007.13,0006.76
2022-07-29 04:09:00,,0831.0,5.00,0.00,30.8,28.2,00.0,39.4,32.0,34.4,-001.0,0010.56,0007.14,0006.77
2022-07-29 04:10:00,,0831.0,5.00,0.00,30.8,28.3,00.0,39.4,32.0,34.5,-000.8,0010.57,0007.15,0006.78
2022-07-29 04:11:00,,0831.0,5.01,0.00,30.8,28.4,00.0,39.4,32.0,34.5,-000.8,0010.61,0007.15,0006.78
2022-07-29 04:12:00,,0831.0,5.00,0.00,30.7,28.5,00.0,39.4,32.0,34.5,-000.5,0011.04,0007.14,0006.78
2022-07-29 04:13:00,,0831.0,4.99,0.00,30.7,28.6,00.0,39.4,32.0,34.8,-000.2,0010.50,0007.14,0006.77
2022-07-29 04:14:00,,0831.0,5.00,0.00,30.7,28.7,00.0,39.4,32.0,34.9,-000.2,0010.17,0007.10,0006.73
2022-07-29 04:15:00,,0831.0,5.00,0.00,30.7,28.7,00.0,39.4,32.1,34.8,0000.1,0010.13,0007.07,0006.71
2022-07-29 04:16:00,,0831.0,4.99,0.00,30.7,28.8,00.0,39.4,32.1,34.8,0000.0,0010.15,0007.08,0006.71
2022-07-29 04:17:00,,0831.0,5.00,0.00,30.7,28.8,00.0,39.3,32.1,34.9,-000.3,0010.11,0007.06,0006.71
2022-07-29 04:18:00,,0830.9,4.99,0.00,30.7,28.9,00.0,39.4,32.1,34.7,-000.3,0010.28,0007.06,0006.72
2022-07-29 04:19:00,,0830.9,5.00,0.00,30.7,28.9,00.0,39.3,32.1,34.7,-000.2,0010.61,0007.10,0006.73
2022-07-29 04:20:00,,0830.9,5.00,0.00,30.7,29.0,00.0,39.4,32.1,35.0,-000.1,0010.91,0007.14,0006.74
2022-07-29 04:21:00,,0830.9,4.99,0.00,30.8,29.0,00.0,39.4,32.3,34.8,-000.2,0011.31,0007.16,0006.74
2022-07-29 04:22:00,,0831.0,5.00,0.00,30.9,29.1,00.0,39.4,32.3,34.4,-000.3,0011.22,0007.16,0006.75
2022-07-29 04:23:00,,0831.0,5.00,0.00,31.0,29.1,00.0,39.4,32.3,34.2,-000.5,0010.59,0007.15,0006.76
2022-07-29 04:24:00,,0831.0,5.00,0.00,31.0,28.8,00.0,39.4,32.2,34.2,-000.4,0010.56,0007.15,0006.78
2022-07-29 04:25:00,,0831.0,5.00,0.00,31.0,28.2,00.0,39.3,32.1,34.3,-000.5,0010.57,0007.17,0006.81
2022-07-29 04:26:00,,0831.0,5.00,0.00,30.9,27.8,00.0,39.3,32.0,34.8,-000.7,0010.58,0007.18,0006.83
2022-07-29 04:27:00,,0830.9,5.00,0.00,30.8,27.8,00.0,39.3,31.9,34.9,-000.2,0010.57,0007.20,0006.84
2022-07-29 04:28:00,,0830.9,5.01,0.00,30.7,27.8,00.0,39.3,31.9,34.7,-000.2,0010.66,0007.23,0006.86
2022-07-29 04:29:00,,0830.9,4.99,0.00,30.7,27.9,00.0,39.3,31.9,34.7,-000.2,0010.59,0007.23,0006.86
2022-07-29 04:30:00,,0830.9,5.01,0.00,30.6,28.0,00.0,39.3,31.9,34.8,-000.2,0010.23,0007.23,0006.89
2022-07-29 04:31:00,,0830.8,5.00,0.00,30.6,28.2,00.0,39.3,31.9,35.1,0000.4,0010.16,0007.23,0006.91
2022-07-29 04:32:00,,0830.8,5.00,0.00,30.7,28.3,00.0,39.2,32.0,34.9,0000.3,0009.88,0007.20,0006.92
2022-07-29 04:33:00,,0830.8,5.00,0.00,30.8,28.4,00.0,39.2,32.1,34.6,0000.3,0009.84,0007.18,0006.91
2022-07-29 04:34:00,,0830.8,5.00,0.00,30.9,28.5,00.0,39.2,32.1,34.4,0000.2,0009.81,0007.15,0006.87
2022-07-29 04:35:00,,0830.7,5.01,0.00,30.9,28.6,00.0,39.2,32.1,34.3,0000.1,0009.79,0007.11,0006.82
2022-07-29 04:36:00,,0830.7,5.00,0.00,30.9,28.6,00.0,39.3,32.1,34.4,-000.2,0009.76,0007.07,0006.77
2022-07-29 04:37:00,,0830.7,5.00,0.00,30.9,28.7,00.0,39.3,32.1,34.6,0000.2,0009.95,0007.06,0006.73
2022-07-29 04:38:00,,0830.8,5.01,0.00,30.9,28.8,00.0,39.3,32.1,34.6,0000.5,0009.98,0007.04,0006.69
2022-07-29 04:39:00,,0830.8,4.99,0.00,30.9,28.8,00.0,39.3,32.1,34.7,0000.6,0009.92,0006.99,0006.65
2022-07-29 04:40:00,,0830.8,5.00,0.00,30.9,28.9,00.0,39.4,32.2,34.8,0000.6,0009.83,0006.94,0006.60
2022-07-29 04:41:00,,0830.8,5.00,0.00,30.9,28.9,00.0,39.4,32.2,34.9,0000.6,0009.70,0006.86,0006.54
2022-07-29 04:42:00,,0830.8,5.00,0.00,30.9,29.0,00.0,39.4,32.2,34.9,-000.1,0009.61,0006.81,0006.48
2022-07-29 04:43:00,,0830.8,5.02,0.00,30.9,29.0,00.0,39.4,32.2,34.9,-000.2,0009.32,0006.80,0006.45
2022-07-29 04:44:00,,0830.7,4.99,0.00,30.9,29.1,00.0,39.4,32.2,35.0,-000.6,0009.27,0006.78,0006.45
2022-07-29 04:45:00,,0830.6,5.00,0.00,31.0,29.0,00.0,39.4,32.3,35.2,-000.6,0009.26,0006.77,0006.43
2022-07-29 04:46:00,,0830.6,5.00,0.00,31.2,28.4,00.0,39.4,32.3,34.6,-000.3,0009.34,0006.76,0006.41
2022-07-29 04:47:00,,0830.6,4.99,0.00,31.3,27.9,00.0,39.4,32.2,34.3,0000.0,0009.31,0006.73,0006.38
2022-07-29 04:48:00,,0830.6,5.00,0.00,31.3,27.8,00.0,39.4,32.1,34.3,0000.0,0009.18,0006.69,0006.36
2022-07-29 04:49:00,,0830.6,5.01,0.00,31.2,27.8,00.0,39.4,32.0,34.4,0000.0,0009.29,0006.67,0006.34
2022-07-29 04:50:00,,0830.6,5.00,0.00,31.1,27.9,00.0,39.4,32.0,34.4,0000.0,0009.27,0006.65,0006.33
2022-07-29 04:51:00,,0830.6,4.99,0.00,31.1,28.0,00.0,39.4,32.0,34.3,0000.0,0009.49,0006.66,0006.32
2022-07-29 04:52:00,,0830.6,5.00,0.00,31.1,28.1,00.0,39.4,32.0,34.3,0000.0,0010.71,0006.67,0006.31
2022-07-29 04:53:00,,0830.6,4.99,0.00,31.0,28.3,00.0,39.4,32.0,34.2,0000.0,0011.11,0006.67,0006.30
2022-07-29 04:54:00,,0830.6,5.01,0.00,31.0,28.4,00.0,39.4,32.0,34.2,0000.0,0011.33,0006.65,0006.28
2022-07-29 04:55:00,,0830.5,5.00,0.00,31.0,28.5,00.0,39.4,32.0,34.3,0000.0,0011.37,0006.63,0006.26
2022-07-29 04:56:00,,0830.5,4.99,0.00,31.0,28.6,00.0,39.4,32.1,34.3,0000.1,0011.40,0006.66,0006.27
2022-07-29 04:57:00,,0830.5,4.99,0.00,30.9,28.7,00.0,39.4,32.1,34.4,0000.0,0011.41,0006.71,0006.31
2022-07-29 04:58:00,,0830.5,5.00,0.00,30.9,28.7,00.0,39.4,32.1,34.8,-000.5,0011.46,0006.75,0006.34
2022-07-29 04:59:00,,0830.5,5.01,0.00,30.9,28.8,00.0,39.4,32.1,34.7,-000.1,0011.36,0006.74,0006.35
